Wind_Speed
10 10 10 10 10 11 10 10 9 9 10 10 10 10 11 10 10 9 8 9 10 8 5 6 7 4 6 6 3 4 7 10 9 8 9 7 5 5 4 5 7 9 12 12 12 12 12 12 12 10 10 11 10 9 9 9 8 7 6 5 2 2 4 6 7 7 7 6 6 7 8 8 8 8 8 9 9 10 11 11 12 13 13 13 13
10 9 8 9 9 10 10 10 10 10 12 12 12 13 13 10 8 9 10 11 11 7 3 5 7 5 6 9 6 3 5 10 11 8 9 8 6 6 5 4 6 8 11 11 12 13 11 12 12 9 8 10 11 10 9 9 9 8 7 7 5 2 3 5 6 6 6 6 6 6 7 7 7 7 7 8 8 9 9 10 11 12 12 12 12
9 8 7 7 8 9 9 9 11 11 11 12 11 11 11 8 7 9 11 11 11 9 4 2 5 7 6 10 11 8 6 8 11 10 10 9 8 7 6 5 5 7 9 11 12 13 12 12 12 10 7 8 11 11 10 10 10 10 8 9 8 4 3 4 5 6 6 6 6 6 6 6 6 6 6 7 7 7 8 9 9 11 11 12 12
9 7 5 6 6 7 8 9 10 11 10 11 10 11 11 9 8 8 10 10 8 8 5 3 4 4 4 9 12 13 10 9 12 13 12 11 10 9 8 7 7 6 8 10 11 12 12 11 11 11 8 7 9 9 10 10 10 11 9 9 10 8 5 4 3 4 6 6 5 6 5 5 5 5 5 5 6 6 7 8 8 9 10 10 11
8 6 3 3 4 6 8 9 10 9 9 9 9 10 11 10 8 7 7 7 6 4 4 5 4 3 1 4 7 9 11 10 13 15 14 13 13 12 10 8 9 8 8 10 10 11 12 11 11 12 9 7 8 8 8 8 10 12 10 9 9 10 7 5 4 3 4 6 6 6 6 5 5 4 4 4 5 5 6 7 7 8 8 9 10
6 7 7 7 7 8 8 9 9 8 8 8 8 9 9 10 8 5 4 6 4 4 6 7 7 6 3 1 4 4 3 5 11 14 14 16 15 14 13 11 10 10 9 9 10 10 11 10 11 12 10 8 9 9 8 7 8 11 12 10 9 10 10 7 6 3 3 6 6 6 6 5 5 4 4 4 4 4 4 5 6 6 7 7 8
6 7 8 10 9 8 8 9 9 8 7 8 8 8 8 9 8 5 5 6 5 5 7 9 8 8 6 2 5 5 4 3 4 5 5 13 20 17 14 14 13 11 10 10 10 10 10 10 10 11 9 9 10 10 9 7 7 8 11 11 9 10 12 9 7 5 3 4 5 6 6 6 5 4 3 3 3 3 3 4 4 5 5 6 7
6 6 8 9 9 8 9 9 9 7 6 5 6 6 6 8 8 6 5 7 6 6 5 7 7 9 8 3 3 5 3 4 1 2 5 4 16 18 15 15 14 12 11 11 11 11 10 11 11 10 9 9 10 10 11 9 7 6 9 11 10 9 11 11 9 6 4 3 3 4 5 6 6 5 4 3 2 2 3 3 3 3 4 5 6
4 5 6 6 6 7 7 8 8 7 5 4 4 5 5 5 7 6 6 7 6 5 3 4 6 6 6 3 3 4 3 3 3 2 3 6 4 9 13 16 16 14 14 12 11 12 11 10 10 10 9 9 10 10 11 11 9 7 7 10 11 8 9 11 10 8 6 5 3 2 2 5 7 6 4 3 2 2 2 3 3 2 3 4 4
7 5 3 3 1 1 2 4 5 5 5 6 6 6 5 3 5 6 7 7 7 5 5 5 6 4 3 3 4 4 3 1 2 2 0 4 8 5 2 10 16 17 16 14 12 12 12 11 11 10 10 10 11 11 11 11 10 8 7 8 9 7 5 8 10 9 8 6 5 3 1 2 5 6 4 3 2 2 2 3 3 3 3 3 3
8 7 6 5 5 5 4 4 2 1 3 5 6 7 6 3 4 6 6 8 9 9 8 7 7 5 3 3 4 5 5 4 1 1 0 1 4 5 6 4 9 16 17 15 14 13 13 13 12 12 12 11 11 11 11 11 10 9 9 8 8 7 3 4 7 9 9 8 7 5 3 1 2 3 3 3 2 2 2 3 3 3 4 3 3
8 7 6 6 6 6 6 6 6 3 0 1 4 7 6 3 4 6 5 6 9 11 9 6 7 5 4 5 7 7 8 7 3 2 2 1 1 2 5 6 2 10 16 17 15 14 14 14 14 14 13 12 12 12 11 11 11 10 10 9 9 9 6 4 4 6 8 8 8 7 5 3 3 2 2 2 2 2 2 3 3 4 4 4 4
9 8 6 5 6 8 7 7 8 5 2 1 1 4 5 4 3 6 6 5 7 8 8 6 5 5 3 4 6 6 8 9 6 4 4 2 1 2 5 6 4 1 9 18 20 16 14 14 15 15 14 13 14 14 12 12 11 11 11 10 10 11 10 8 6 5 6 6 7 8 7 5 5 4 4 3 3 3 3 4 4 5 5 5 5
12 10 9 10 11 10 8 8 9 7 5 4 2 1 3 4 3 5 7 8 8 7 7 7 5 6 4 2 3 3 4 7 7 8 7 5 3 5 6 7 6 2 3 10 16 15 14 13 15 17 16 14 14 14 14 13 13 13 12 12 11 12 12 11 9 7 6 6 6 7 7 6 5 5 6 6 4 4 4 4 5 5 6 6 6
11 11 12 14 14 11 8 7 8 6 6 8 6 5 3 4 4 6 8 9 9 7 8 7 7 7 4 1 1 1 2 4 5 8 9 8 8 9 9 8 7 5 2 4 5 7 9 11 14 16 17 17 16 15 15 15 15 14 13 13 12 12 13 13 12 11 10 9 8 8 8 7 6 5 6 7 7 7 6 6 5 6 6 7 7
12 12 12 13 12 10 9 10 9 6 5 7 7 7 6 4 4 5 8 9 7 5 6 7 9 8 3 1 1 2 1 2 2 4 6 7 8 7 8 8 6 4 4 3 3 6 6 6 9 14 17 19 18 16 16 16 16 16 16 15 15 14 14 14 14 13 12 11 11 11 10 10 8 7 7 8 9 9 9 8 7 6 7 7 8
13 11 11 12 11 10 10 10 10 10 9 8 8 10 10 7 5 5 5 7 7 5 4 4 9 9 4 3 2 1 2 2 2 2 3 4 5 4 3 6 7 5 3 4 3 3 5 5 5 7 11 13 15 14 15 15 15 17 19 17 17 17 16 16 16 15 15 14 13 13 13 13 12 10 9 9 9 10 10 10 9 8 8 9 9
12 11 10 10 11 11 9 8 9 10 12 13 13 13 12 10 8 7 5 5 7 8 6 5 6 9 7 4 1 1 3 2 2 1 1 2 3 4 4 4 6 6 5 5 5 4 4 4 4 6 6 6 9 9 9 11 11 13 16 16 17 18 19 19 18 18 17 16 15 15 16 16 15 14 13 11 11 11 11 11 11 10 10 10 11
11 10 9 9 11 10 8 9 9 7 7 9 11 11 12 12 11 11 9 7 8 9 9 8 6 6 7 5 2 3 3 2 2 1 1 1 1 1 3 4 5 6 6 6 6 5 4 4 4 5 6 5 6 6 6 8 9 10 11 12 13 14 17 19 20 20 19 19 18 17 17 17 17 17 16 14 13 12 12 12 12 12 12 11 12
10 11 11 10 10 9 10 12 10 7 6 7 8 7 10 12 12 12 11 10 9 8 9 8 7 6 6 5 3 4 5 4 4 3 2 1 1 2 2 2 4 7 7 7 7 6 5 5 6 6 6 6 6 6 6 6 7 9 10 10 11 11 12 15 19 20 20 20 20 19 18 18 18 18 17 17 16 15 15 14 13 12 13 13 13
11 11 11 10 9 9 11 13 11 10 9 9 8 8 9 10 10 10 10 11 12 11 11 10 10 9 5 4 4 5 5 4 3 2 2 2 1 2 3 4 4 5 6 6 5 5 4 5 6 6 7 8 7 7 6 6 7 8 9 10 10 10 10 13 15 17 19 20 21 21 21 19 18 18 18 18 18 18 17 16 15 14 13 14 14
11 11 11 10 9 9 11 12 11 10 10 10 10 10 10 10 10 9 9 10 10 12 12 11 12 13 10 7 6 5 4 2 2 1 1 1 0 1 3 5 5 5 5 4 4 5 5 6 7 8 8 9 10 10 8 8 8 9 10 10 10 10 11 13 13 14 16 18 19 21 23 22 20 19 19 20 20 19 19 18 17 16 15 15 15
12 11 10 9 9 10 10 11 10 9 8 9 10 10 10 10 10 10 10 9 9 10 10 9 10 12 13 13 12 10 8 8 7 7 6 3 1 1 4 6 4 4 4 2 3 3 5 7 8 9 11 12 13 13 12 10 10 10 10 10 10 10 11 12 12 11 13 15 15 17 20 22 22 22 22 22 21 21 21 20 19 19 18 17 16
12 10 9 9 10 9 9 9 9 8 8 8 8 8 8 9 9 9 9 8 9 11 11 11 11 12 13 14 14 13 12 11 9 9 9 7 5 3 5 7 4 5 7 4 4 6 6 6 5 5 8 10 11 11 11 10 10 10 10 9 9 10 11 12 11 9 11 13 13 14 16 17 19 22 24 24 22 22 23 22 21 21 21 19 18
12 10 9 9 10 9 7 7 7 7 8 9 7 6 6 6 7 8 10 10 9 11 11 12 11 11 11 11 11 12 12 10 9 9 8 9 10 6 5 6 3 5 7 8 9 9 9 7 5 5 7 9 10 10 9 8 8 9 9 9 9 8 8 9 9 8 10 11 12 13 14 16 17 19 22 24 23 23 23 23 23 23 23 22 20
12 11 9 8 9 9 6 5 7 6 7 9 7 5 4 5 7 8 9 8 8 9 10 10 11 10 10 9 9 10 9 9 9 10 9 10 10 8 6 5 4 6 7 9 12 12 14 13 7 6 10 11 10 8 9 9 9 9 9 8 7 6 6 7 7 8 9 9 10 10 12 13 15 17 19 22 24 26 26 26 26 26 25 24 23
12 10 9 9 8 8 6 4 5 5 6 9 9 6 5 3 4 6 6 6 7 9 8 10 11 11 9 7 8 9 8 7 7 7 9 9 9 8 7 5 4 6 6 8 10 11 15 16 12 12 15 15 15 13 7 6 9 7 5 5 5 5 5 6 7 8 9 9 10 11 11 11 12 14 16 19 21 24 27 29 29 28 28 27 26
13 11 10 10 9 8 7 5 4 4 6 9 9 7 5 2 2 4 5 7 7 8 8 10 11 11 9 6 7 8 6 6 5 4 6 8 8 9 9 6 3 3 3 5 6 6 13 16 10 11 16 15 14 15 12 5 1 3 6 6 6 7 7 7 7 8 8 10 11 12 13 13 13 14 14 16 18 20 24 28 30 31 30 29 29
14 13 11 11 11 9 8 6 5 4 5 8 8 6 5 3 2 4 5 6 5 4 6 8 10 10 8 5 5 6 6 7 8 7 7 7 7 7 9 8 6 3 2 3 4 2 9 16 12 12 17 16 15 14 12 9 6 7 8 7 8 9 11 11 11 11 11 12 12 13 14 15 16 16 16 16 16 17 20 23 28 31 32 31 31
14 14 12 12 12 10 9 8 6 5 5 7 7 6 6 6 3 3 5 5 5 4 4 5 6 8 7 5 3 4 6 8 8 9 8 7 6 5 5 6 6 5 3 2 2 3 9 15 13 14 18 17 16 15 14 12 10 9 9 9 9 10 11 13 14 14 15 15 16 16 17 18 19 20 20 20 19 18 18 19 22 26 29 32 33
14 14 13 12 11 11 10 10 9 7 5 6 7 7 7 8 6 5 6 6 5 6 6 4 4 5 8 7 3 3 5 5 5 6 6 7 7 6 5 5 5 4 4 2 1 4 10 15 16 17 19 19 18 16 15 14 13 13 13 13 13 13 14 14 15 15 16 18 18 18 18 18 19 20 20 20 20 20 20 19 19 21 24 28 31
13 13 13 12 11 11 11 11 11 10 8 7 8 8 8 8 7 7 8 7 6 7 7 6 4 5 8 7 4 3 4 4 5 4 1 2 4 4 4 5 4 2 2 1 2 6 11 14 15 18 18 18 17 16 16 16 15 15 16 16 16 17 17 17 17 17 17 18 18 17 17 18 19 20 21 21 21 21 21 21 21 20 21 23 26
13 13 13 13 12 11 11 11 12 12 12 10 9 10 9 8 8 9 10 9 8 9 9 6 6 6 6 7 5 3 4 6 6 3 1 1 2 3 2 1 2 1 1 2 3 7 12 13 14 16 16 16 16 15 16 18 18 18 17 17 18 19 19 19 18 18 18 17 17 17 18 19 19 20 21 22 22 22 21 21 20 20 20 21 23
12 13 13 13 13 11 11 11 12 13 14 12 11 11 11 10 10 10 11 11 10 11 11 9 8 7 6 7 6 5 5 5 4 3 2 3 2 2 2 1 2 3 3 5 5 7 12 15 15 15 14 14 15 16 17 19 20 19 18 17 18 19 19 19 19 19 18 17 16 17 18 20 20 20 20 20 20 21 21 21 21 20 20 21 22
11 10 10 13 14 12 11 10 12 14 16 16 14 13 13 13 12 13 13 13 12 12 13 12 11 9 8 8 7 7 7 4 3 3 3 2 2 1 2 1 2 3 4 5 6 7 10 14 14 14 15 16 17 18 19 19 19 19 19 19 19 19 19 19 19 19 18 17 17 18 20 22 22 21 19 18 18 19 20 22 22 22 21 21 22
12 9 7 11 14 14 12 12 15 16 15 15 15 15 15 15 15 15 16 15 14 14 14 14 14 12 11 10 8 8 8 6 3 3 2 1 1 2 3 2 3 4 4 4 6 7 9 12 15 17 17 18 19 19 19 19 19 18 19 19 19 20 19 18 19 19 19 19 19 20 21 21 20 18 16 16 16 17 18 20 22 23 23 23 24
12 11 9 9 11 12 13 13 15 16 14 13 13 14 17 19 18 17 18 18 17 16 15 14 15 14 14 14 11 9 9 7 4 3 3 3 4 3 4 4 5 6 7 7 8 9 10 13 17 18 18 18 20 20 19 20 21 21 20 20 20 21 20 19 19 19 20 19 19 18 19 19 18 18 19 19 18 18 19 19 22 24 25 26 26
14 14 15 14 13 14 16 17 17 16 15 15 16 17 19 22 22 21 19 20 20 19 17 15 16 16 16 16 13 11 10 9 7 6 5 6 6 6 5 6 6 7 8 9 9 10 11 13 16 18 19 19 20 20 19 20 21 22 22 23 22 21 21 20 20 19 18 18 18 18 19 20 22 23 23 23 22 21 20 21 21 23 24 25 26
14 15 15 15 16 16 17 20 22 20 17 17 19 20 20 21 24 24 23 21 21 21 19 17 17 16 15 15 14 12 11 10 8 8 8 8 8 7 6 7 8 9 10 11 11 11 12 14 16 17 18 19 19 19 18 18 19 19 20 22 22 21 21 21 22 21 21 22 23 25 25 26 26 25 23 21 20 20 20 20 21 22 23 26 27
15 15 15 15 15 15 15 18 22 22 21 21 21 21 21 21 23 24 26 26 23 22 20 18 18 17 15 15 15 13 12 11 10 10 10 10 10 8 8 9 11 12 12 12 12 12 12 14 16 17 18 19 20 19 19 19 18 18 19 20 21 22 23 22 22 22 23 24 24 25 25 24 22 21 19 18 18 19 19 19 19 20 21 23 26
13 15 16 17 18 18 16 17 19 21 21 23 23 22 22 23 22 21 24 28 27 23 21 19 18 18 17 16 14 13 13 13 12 12 12 11 11 10 11 12 12 12 12 13 13 13 14 14 16 17 18 19 21 21 20 19 17 18 20 22 22 24 26 26 24 20 19 20 20 19 17 16 17 18 18 18 18 19 20 21 21 21 21 22 23
8 10 12 14 17 19 18 18 19 20 21 23 24 23 22 23 23 20 20 23 25 24 22 21 20 19 19 18 16 14 14 14 13 13 13 12 12 13 14 13 11 10 11 12 13 13 14 15 17 17 16 18 20 20 19 20 20 21 23 23 24 25 26 25 24 22 18 17 20 23 21 18 20 22 21 21 22 22 24 25 26 25 24 23 23
9 8 8 9 10 12 14 16 18 19 20 22 22 22 21 21 23 22 20 19 22 24 23 22 22 20 19 19 18 17 16 15 14 14 13 13 13 14 13 11 10 10 10 11 12 13 14 15 17 17 16 18 21 20 20 22 22 22 23 24 24 23 21 18 18 21 21 21 25 30 30 26 25 27 26 24 24 23 24 26 27 27 27 27 27
8 10 10 10 9 9 10 13 14 15 17 18 19 19 18 18 20 22 22 20 20 22 23 23 23 21 20 19 18 17 16 14 14 14 14 14 14 13 12 11 10 10 11 12 14 15 16 18 19 20 20 21 22 23 22 22 21 22 24 25 24 23 21 18 17 21 26 28 29 32 34 32 30 31 33 32 30 29 28 28 28 29 31 31 32
6 7 9 10 12 12 12 13 13 14 14 14 14 15 16 17 18 20 21 20 20 21 23 23 22 22 21 19 17 15 13 13 13 13 12 13 13 12 12 11 10 10 10 11 12 14 17 19 21 22 23 23 24 24 23 22 23 25 26 26 25 23 22 22 23 27 31 32 30 29 33 34 31 30 33 33 32 32 31 30 29 29 29 29 30
9 9 9 9 10 12 14 16 16 15 13 12 12 14 15 15 16 17 17 17 19 22 23 22 22 21 20 18 16 13 12 11 10 10 10 11 11 11 11 10 10 9 10 12 14 15 16 18 20 22 22 22 23 24 24 23 25 27 26 25 25 25 25 27 30 33 35 34 30 26 27 29 28 28 30 30 30 30 29 28 27 26 26 27 27
11 12 13 13 13 13 14 15 16 16 14 13 14 15 14 14 14 14 14 15 19 21 20 20 19 18 17 16 14 13 11 10 9 10 11 11 12 13 13 13 13 13 14 16 17 17 17 17 19 21 20 19 19 20 20 21 23 24 24 25 25 27 30 31 31 31 31 31 28 24 24 27 28 29 31 28 27 28 27 27 27 26 26 27 28
10 11 13 14 15 16 16 16 15 16 16 16 15 14 13 14 14 14 14 17 19 19 18 18 17 15 14 13 12 10 9 10 11 11 12 12 14 15 16 16 16 17 18 19 17 15 15 16 17 18 17 16 16 17 18 19 20 21 22 24 25 26 28 27 25 25 25 24 23 21 24 27 26 27 30 29 28 30 29 28 26 25 26 28 29
11 12 13 13 14 15 16 16 15 15 16 16 14 13 12 13 15 16 16 17 18 18 16 14 12 10 8 8 7 8 9 11 11 11 12 12 14 15 15 15 16 16 17 16 15 13 14 16 17 17 17 18 19 21 21 22 22 22 23 24 24 23 23 20 19 21 22 22 21 21 24 26 24 26 30 30 29 29 26 23 21 21 24 26 26
11 11 13 13 13 13 14 14 13 13 14 13 12 12 12 13 15 16 16 17 16 14 12 10 9 8 7 7 7 8 10 10 11 11 12 13 14 14 13 13 13 14 14 14 15 16 17 19 20 21 23 25 26 28 28 29 29 28 27 27 25 24 22 18 17 19 21 21 19 17 21 24 23 25 27 26 24 22 18 17 20 21 23 25 23
12 12 12 11 10 10 10 10 9 9 10 9 9 11 12 14 15 16 16 16 14 12 12 12 11 10 8 7 7 7 7 8 9 10 11 12 12 11 11 12 13 15 16 17 19 20 21 22 22 23 24 24 25 26 26 26 27 27 27 27 25 24 23 22 20 18 15 13 12 12 17 21 21 20 19 16 13 12 14 18 22 23 24 25 23
Wind_Direction
204 205 198 196 195 198 203 202 200 204 212 212 212 222 231 222 201 209 231 242 255 269 278 245 240 265 229 219 229 235 230 213 204 199 194 193 181 170 175 186 187 182 180 179 175 178 176 173 180 186 185 181 176 178 173 164 164 155 149 167 188 154 129 116 112 111 111 109 102 101 99 97 97 98 100 101 101 101 103 103 106 106 105 103 99
198 204 202 200 197 202 209 208 209 214 219 220 220 227 233 229 208 215 225 228 233 227 232 245 240 242 225 222 221 237 240 212 206 205 201 203 195 184 181 190 192 185 185 183 179 182 182 176 183 186 183 184 182 180 178 174 169 159 155 168 175 195 172 133 119 113 111 110 106 102 103 101 97 98 97 100 101 101 103 103 107 109 107 106 103
196 206 211 215 208 206 212 214 218 220 220 219 219 224 228 226 211 218 225 228 230 221 230 274 238 239 236 231 223 219 233 217 209 210 207 205 203 198 194 197 195 190 189 185 184 187 185 182 185 189 185 180 184 184 183 185 176 164 169 176 173 182 182 155 137 124 114 110 111 107 104 105 101 101 98 99 103 103 105 105 108 110 108 108 107
189 205 225 234 219 204 206 210 216 212 208 214 220 220 221 225 215 220 232 232 229 221 245 292 236 244 245 237 234 223 223 223 214 215 215 211 207 206 204 204 198 192 193 191 193 191 188 189 185 191 200 185 182 184 185 190 180 170 177 186 182 177 181 186 168 142 130 118 117 117 109 108 104 105 103 101 105 106 107 108 109 111 111 112 110
182 186 205 237 214 197 200 202 209 207 203 210 217 218 218 221 217 227 242 233 230 233 265 274 244 261 230 220 252 240 232 231 216 214 220 215 210 210 208 207 202 194 194 196 201 196 194 195 184 191 207 195 183 180 182 189 181 177 181 194 192 176 176 198 195 171 149 137 128 125 116 112 109 109 111 108 108 109 111 112 113 115 116 118 117
184 173 186 214 207 201 209 206 208 214 216 217 217 216 210 212 211 218 239 226 243 286 281 267 254 260 247 210 332 319 279 237 212 212 221 220 216 215 211 210 205 197 196 197 201 203 202 201 188 195 209 198 188 188 190 193 187 181 181 196 207 183 175 191 200 197 165 153 145 137 128 122 118 115 116 119 118 114 115 115 116 120 122 126 125
186 183 199 220 214 212 233 226 216 221 234 238 230 224 213 210 204 198 225 226 247 283 274 267 259 254 259 300 336 336 31 71 203 207 216 221 217 212 210 214 209 200 200 200 200 201 205 206 197 197 207 198 187 194 201 204 206 190 179 189 206 192 180 185 199 206 185 162 161 154 144 136 129 127 124 125 129 129 123 120 122 124 126 131 131
172 183 200 225 227 228 243 242 233 227 238 247 227 223 217 208 200 196 218 225 249 272 260 261 254 246 256 281 318 318 18 66 69 67 68 187 212 213 215 217 214 208 208 208 204 200 200 205 205 200 205 199 184 193 204 207 217 208 185 186 198 201 189 185 193 203 208 200 184 173 162 154 145 138 137 138 143 150 147 141 138 132 132 134 132
127 165 194 221 238 239 247 258 255 242 248 255 225 221 216 203 201 198 207 222 247 254 208 235 249 236 237 244 268 306 347 53 40 27 74 74 139 208 224 224 220 213 209 211 208 204 202 203 208 206 206 201 189 194 204 206 217 220 196 188 194 205 200 193 192 194 207 219 218 218 184 172 162 153 148 149 160 173 175 171 164 158 150 146 143
83 107 147 164 113 342 278 277 273 266 261 249 239 238 233 221 205 192 205 225 240 231 202 224 250 244 225 240 261 279 294 299 22 21 187 60 65 78 242 240 231 221 212 212 210 206 205 205 209 209 209 205 199 199 203 206 218 222 206 193 190 189 190 199 201 197 200 211 223 240 268 183 168 162 160 162 173 181 194 195 185 184 179 171 164
81 91 98 107 93 57 42 38 28 328 260 250 257 257 245 226 200 185 203 227 234 232 226 232 245 265 268 238 248 259 253 249 291 0 336 47 66 56 25 329 248 233 225 216 211 211 210 208 209 210 210 208 206 207 206 210 219 219 217 212 197 194 192 194 204 206 205 207 218 229 249 259 174 163 165 171 189 202 210 210 202 198 197 199 197
95 94 93 99 97 78 58 43 43 50 43 275 271 263 256 238 197 183 185 216 233 236 235 236 241 263 277 245 251 260 245 239 259 302 332 4 104 45 2 1 310 236 238 231 217 214 216 215 215 215 213 212 212 212 211 214 218 216 220 219 205 211 222 209 200 208 211 212 213 221 236 248 230 210 195 184 196 215 228 229 219 213 207 207 213
121 108 100 101 110 100 78 54 46 49 70 99 198 251 262 277 232 199 186 195 224 234 228 216 218 229 228 233 249 258 248 248 256 262 279 287 341 8 332 332 4 177 232 235 227 222 224 223 223 221 218 219 219 217 216 219 221 219 219 215 204 210 223 230 227 217 219 218 211 215 226 236 235 232 233 231 217 214 229 240 237 231 225 216 215
122 111 104 104 116 113 91 74 65 66 87 107 117 154 229 246 242 207 195 205 221 219 203 189 184 204 196 183 240 253 260 261 259 259 261 255 285 327 320 313 318 355 163 211 220 225 233 236 233 228 225 226 227 224 221 221 224 225 223 220 210 206 214 224 232 235 238 232 217 217 225 233 239 239 240 242 237 229 227 235 242 244 243 234 223
112 111 110 107 111 108 101 98 78 72 98 104 104 101 129 188 197 194 186 193 211 211 200 193 176 180 173 121 235 280 301 289 264 260 263 258 270 292 299 306 303 288 222 170 175 190 216 234 237 236 233 231 232 231 229 226 227 227 228 228 224 217 214 217 229 243 249 245 236 232 234 237 239 240 241 244 246 245 242 241 240 242 249 250 240
116 115 113 111 111 103 105 110 87 76 104 99 98 95 93 114 147 180 183 176 178 189 206 203 181 175 159 99 93 59 317 290 249 241 255 255 262 275 287 291 286 271 247 224 143 130 149 193 228 240 240 235 235 238 236 236 236 235 234 233 232 230 224 221 227 238 246 248 246 243 244 245 246 244 238 240 246 250 251 250 246 240 240 246 247
112 115 113 111 109 97 102 111 96 90 96 93 94 88 78 76 92 129 167 169 159 158 181 194 188 189 175 129 97 67 223 218 146 194 226 216 224 232 257 271 265 266 251 230 208 162 142 139 170 215 229 230 230 232 237 240 243 241 239 239 239 238 234 229 228 232 238 243 248 250 250 250 253 252 244 240 243 248 252 253 251 246 237 237 239
109 116 117 109 105 97 98 111 103 96 95 95 97 89 80 76 80 96 113 139 149 145 142 155 185 196 191 173 129 144 177 163 135 152 190 175 189 210 230 251 256 256 249 242 239 215 187 169 165 179 187 192 195 202 219 228 232 235 238 241 243 243 242 239 236 233 235 238 242 248 252 255 256 256 253 247 245 247 251 252 247 241 239 235 230
109 114 114 114 111 99 97 114 111 100 98 97 98 91 89 91 89 90 87 98 131 137 131 133 141 163 182 189 206 196 178 152 156 148 127 170 156 190 243 258 260 260 252 250 251 240 218 207 204 194 188 181 183 189 197 210 223 230 234 237 238 242 244 244 243 240 238 237 236 241 247 252 255 257 257 253 250 248 250 254 246 234 232 231 225
110 114 118 121 119 99 93 109 110 97 91 95 100 99 99 100 98 97 92 91 107 124 127 123 115 128 160 164 146 173 175 154 145 133 116 144 309 337 329 301 272 264 257 255 255 251 250 241 232 228 223 217 210 211 210 218 233 236 239 242 241 243 243 245 247 246 244 242 240 240 241 245 249 253 257 257 254 251 249 252 251 237 228 225 225
116 115 117 121 126 116 99 96 94 86 82 84 94 100 102 103 101 100 99 95 94 101 106 96 91 97 121 159 156 153 153 140 135 134 107 100 314 297 310 312 291 268 252 252 258 254 264 268 254 240 232 223 213 217 232 246 252 249 249 248 249 254 250 245 246 247 247 245 245 244 242 242 243 246 252 256 255 253 250 249 250 245 235 228 225
122 117 113 112 118 123 110 97 89 88 81 77 83 84 85 94 98 96 100 102 98 98 99 92 87 83 81 107 134 139 130 89 77 102 95 98 266 277 311 311 286 270 265 253 256 259 262 272 268 254 247 246 242 244 251 255 258 260 259 257 259 263 258 249 246 244 241 240 245 247 245 245 245 244 248 252 253 252 250 248 246 246 243 235 226
131 127 125 121 113 110 110 105 99 96 86 77 81 82 81 88 94 97 98 103 107 105 100 98 96 84 78 89 97 97 91 76 71 74 76 76 57 340 347 344 314 302 317 277 251 264 259 264 268 264 261 263 262 260 262 263 263 261 258 258 261 261 260 256 254 249 239 236 240 244 245 245 245 246 247 250 249 248 249 249 246 244 245 240 229
140 137 135 131 122 116 114 113 111 108 103 95 89 85 88 93 95 97 97 98 108 114 108 102 101 90 83 87 88 85 81 76 71 69 70 66 63 57 4 3 354 348 2 354 315 303 281 267 262 268 275 275 270 260 257 258 256 253 250 254 260 264 266 262 261 258 247 244 245 247 248 246 246 247 246 247 246 245 248 248 245 242 242 240 232
152 151 143 136 131 128 120 119 127 123 119 117 102 80 81 90 91 91 90 90 101 115 115 107 102 95 89 89 90 87 78 73 76 76 72 62 58 51 12 14 7 346 3 13 7 353 334 317 284 291 325 322 301 278 264 256 244 246 251 258 266 271 274 270 269 271 262 259 260 259 259 256 254 251 247 245 243 242 246 246 243 242 243 241 237
161 160 154 146 134 135 139 127 129 132 130 130 122 103 94 87 87 91 90 85 92 107 118 117 110 101 94 92 95 96 84 76 84 84 77 64 58 49 22 19 14 360 5 20 29 29 24 32 55 43 31 26 5 330 290 267 251 254 264 274 283 290 297 292 286 284 278 277 277 277 276 269 263 258 253 250 245 242 243 245 246 246 246 244 242
164 165 162 159 145 148 170 169 140 136 133 137 137 134 136 112 91 97 98 92 86 89 105 119 116 107 98 89 92 101 95 81 85 90 83 71 61 47 36 39 22 4 2 11 26 35 30 39 64 55 38 36 33 31 10 277 251 259 286 304 316 325 323 313 305 297 288 285 288 291 291 286 279 271 265 260 254 247 244 244 246 247 247 246 244
168 170 166 167 166 170 184 197 176 148 135 140 141 138 146 156 120 114 107 97 86 76 88 107 114 109 98 79 81 94 93 73 66 90 101 89 74 53 41 54 57 3 350 357 4 26 21 20 29 25 19 17 16 29 40 35 326 359 3 347 333 326 317 309 303 299 290 283 285 290 292 292 291 286 278 273 267 260 252 246 245 246 247 247 246
176 176 174 171 177 185 193 204 202 178 150 148 151 154 170 195 169 140 125 108 103 88 87 103 117 116 106 88 80 83 82 76 70 80 107 107 94 72 50 55 64 55 57 6 329 309 3 9 12 3 0 2 358 2 19 23 10 0 354 343 335 325 313 307 302 299 296 291 289 290 291 291 290 289 287 283 278 272 265 256 250 247 247 247 246
185 183 181 177 182 191 198 205 207 203 180 164 171 184 189 198 205 180 157 147 156 156 129 125 132 131 128 119 103 88 86 85 76 73 85 92 89 84 64 58 59 61 75 39 330 311 345 355 358 350 345 346 345 344 349 354 347 337 328 319 317 316 313 309 304 301 297 295 293 292 291 290 289 289 288 287 284 279 273 267 260 254 250 249 248
190 191 189 185 188 194 199 207 212 217 214 189 189 202 200 198 207 203 188 186 178 167 171 177 163 149 142 134 128 117 102 96 90 75 68 69 70 74 76 71 67 55 43 36 338 316 339 343 339 337 338 336 336 338 340 345 344 336 328 319 312 310 309 307 304 301 298 297 297 297 296 293 290 287 285 284 283 280 275 272 269 264 258 254 252
191 195 198 198 198 200 202 209 215 220 224 213 202 211 217 214 218 214 204 205 195 183 193 201 185 165 151 148 157 146 132 133 125 111 73 43 43 42 62 71 77 70 6 0 250 294 322 330 326 329 335 336 339 343 342 340 338 333 329 326 322 317 314 312 309 305 302 300 299 300 300 298 295 292 288 284 281 279 276 272 270 267 265 262 258
200 201 204 207 209 209 207 212 221 225 227 227 216 216 224 227 229 230 224 221 212 205 212 209 194 190 171 166 185 190 161 152 143 139 176 174 12 352 346 29 45 43 318 299 278 298 313 318 319 324 332 336 338 339 335 328 324 323 320 318 317 315 314 313 311 308 307 305 302 300 299 298 298 298 294 287 281 276 272 271 271 271 269 267 264
200 206 212 216 214 210 209 217 226 230 232 234 228 221 225 229 230 235 237 233 222 217 222 217 204 206 199 195 211 214 185 167 171 185 180 159 134 38 28 33 7 9 346 316 303 295 300 308 316 321 326 331 327 323 321 317 317 318 316 314 312 311 310 310 309 309 310 309 305 302 299 298 300 302 301 295 285 275 268 267 271 275 275 273 270
204 208 212 209 201 196 201 213 228 236 237 235 231 228 229 229 230 234 238 238 231 226 228 224 215 214 213 210 212 205 201 206 202 180 149 137 143 28 356 1 346 340 336 318 308 300 298 306 315 318 321 322 316 314 315 314 316 316 313 311 309 306 306 308 307 308 309 307 304 299 297 298 301 302 302 299 292 282 271 264 265 270 274 276 275
217 213 204 198 195 197 205 213 222 232 236 230 225 229 232 233 232 231 233 238 237 233 233 230 223 221 220 218 214 209 220 233 217 178 160 179 248 264 268 274 289 302 313 312 313 318 316 311 310 310 314 315 312 313 316 316 315 314 312 310 308 306 304 305 305 305 305 304 302 300 298 299 302 304 304 303 299 293 283 272 268 270 273 275 276
230 229 234 229 216 214 221 225 225 227 230 227 224 229 234 235 234 231 229 232 235 236 237 235 229 225 225 225 221 221 233 238 216 210 237 248 250 252 260 275 280 287 297 300 303 311 314 313 309 307 309 311 310 312 316 318 317 314 312 310 308 308 307 305 304 303 304 303 300 300 300 300 301 302 303 303 301 298 293 286 280 277 277 277 278
235 236 243 247 244 239 238 238 236 232 229 230 235 237 233 231 232 232 230 229 231 233 235 236 234 232 229 226 220 219 227 225 214 220 239 244 251 264 272 279 284 287 294 297 300 303 305 307 306 305 307 310 312 313 317 322 321 317 316 314 312 313 312 311 309 305 304 303 300 299 300 301 301 301 301 300 299 297 294 291 288 284 282 280 279
230 231 236 241 246 248 246 243 241 239 232 233 239 240 237 233 229 229 230 229 228 230 230 230 231 233 231 220 211 209 214 217 221 228 237 246 256 265 270 281 287 288 291 295 298 301 304 307 307 307 311 311 311 314 318 322 319 319 327 330 327 323 320 318 317 313 308 304 303 302 300 300 301 302 304 303 302 302 300 296 292 289 286 283 280
240 239 241 247 252 254 252 245 243 244 241 239 239 240 243 240 230 228 231 230 227 224 221 221 224 226 220 207 201 206 214 223 232 236 242 252 257 257 271 292 296 294 295 297 299 303 305 307 306 307 311 310 309 313 317 321 324 327 332 336 331 326 323 320 316 317 318 314 309 306 304 305 306 306 306 304 302 305 308 307 304 301 298 295 290
252 252 254 258 263 265 262 251 245 247 248 247 245 245 248 244 235 235 236 231 227 222 214 212 215 214 208 201 200 210 221 229 239 245 249 253 254 260 280 297 299 296 299 298 298 302 303 303 303 305 309 307 307 313 318 321 328 328 324 323 322 321 322 320 313 314 322 319 314 312 309 311 316 314 310 307 303 302 304 306 308 308 308 308 305
262 262 261 263 267 268 266 259 253 253 253 252 251 251 253 248 240 239 239 231 226 223 214 205 204 204 203 203 206 215 225 232 241 247 250 250 255 268 282 293 297 297 298 298 300 303 304 304 303 305 307 304 305 311 312 310 314 317 318 321 323 321 322 322 315 311 313 313 315 316 309 308 316 316 311 308 304 298 295 296 299 304 306 307 307
279 271 259 259 266 268 266 261 258 257 258 258 256 255 256 251 242 242 246 237 228 225 217 205 200 198 196 199 205 213 223 233 240 244 247 251 260 274 284 291 295 295 294 295 298 301 300 298 298 300 300 299 301 305 305 306 310 313 314 316 320 322 324 324 316 307 305 307 316 317 307 301 307 310 305 302 300 297 293 290 291 294 296 296 297
295 284 271 266 268 270 268 263 260 261 262 264 264 262 261 256 251 250 248 237 228 226 216 205 200 197 196 199 203 211 221 230 236 240 246 255 268 280 287 290 289 289 290 290 292 294 294 292 292 293 293 293 296 300 301 305 308 309 308 309 311 314 314 312 305 300 302 307 316 315 306 300 302 303 300 297 298 298 297 294 293 292 292 291 290
326 307 289 279 274 273 271 268 267 266 265 269 273 272 269 265 259 252 244 234 228 222 211 203 201 200 199 200 202 208 218 222 226 235 246 259 270 274 275 274 275 277 281 285 288 290 293 292 288 287 290 291 290 293 297 299 300 302 303 303 303 303 303 302 300 300 303 308 313 311 302 300 303 302 297 297 299 299 299 300 300 298 297 294 291
312 315 312 301 292 286 278 272 267 262 260 267 274 274 274 270 261 250 239 227 216 208 202 201 201 200 200 200 199 200 205 210 218 232 247 257 261 262 260 259 261 268 278 288 291 290 293 296 293 293 297 297 293 294 298 297 296 297 296 295 295 296 296 296 297 298 300 302 306 304 297 298 304 302 296 297 300 301 301 303 303 302 301 298 295
298 299 302 302 302 301 296 286 272 257 251 255 261 266 268 265 256 245 227 207 196 193 193 193 192 190 190 191 190 191 199 214 232 245 254 260 261 261 262 264 269 277 287 293 294 293 294 297 297 299 303 304 299 299 299 297 294 293 291 289 290 293 295 294 293 294 294 295 299 298 291 294 301 298 295 299 302 302 302 304 305 306 304 298 296
295 294 294 295 296 296 299 298 285 265 252 251 253 256 255 248 237 226 211 198 191 187 184 183 180 177 179 184 191 204 225 243 253 258 263 267 266 265 267 271 277 283 288 292 293 292 290 289 289 293 297 297 296 295 295 294 293 293 294 293 293 294 295 293 291 291 293 295 298 296 289 292 297 295 294 299 302 302 304 305 305 306 305 304 303
292 293 293 293 292 289 289 293 288 266 249 245 247 248 244 232 220 212 202 192 185 179 174 173 176 178 186 203 218 235 250 254 254 256 260 262 264 267 272 277 281 284 286 288 286 281 277 275 275 279 281 284 288 288 290 291 291 295 300 301 302 302 297 290 286 288 289 291 297 297 288 287 291 291 292 297 300 302 308 311 311 313 315 317 316
293 293 292 289 287 288 288 290 286 264 245 237 235 236 232 222 214 207 195 180 172 169 166 165 171 177 188 211 224 229 234 239 243 248 253 257 262 268 274 278 282 283 284 285 283 281 280 277 275 276 278 281 283 284 285 285 284 288 293 295 298 299 292 285 283 288 289 287 294 298 286 282 289 291 294 300 304 306 314 317 316 321 328 332 331
289 289 288 283 280 280 281 281 274 256 238 221 207 209 209 206 204 199 187 175 166 161 162 161 160 164 175 188 200 213 226 239 251 255 257 261 267 272 281 288 292 293 293 294 294 294 294 293 293 294 294 294 293 292 291 291 288 287 287 289 292 291 285 281 282 287 289 284 291 298 288 288 296 298 302 314 314 308 316 315 311 318 332 337 334
Height
820 820 821 822 823 823 824 825 825 826 826 828 829 828 827 827 828 828 829 830 830 831 832 833 834 835 835 836 837 837 838 838 838 839 840 840 840 840 841 841 840 840 841 841 841 841 841 842 842 843 844 845 846 846 846 847 847 848 848 849 849 849 850 850 850 850 850 850 850 851 851 851 851 850 851 851 851 851 851 851 851 851 851 851 851
819 820 821 822 822 823 823 824 825 825 825 826 827 827 827 828 829 829 828 828 828 829 830 831 832 833 834 835 836 836 837 837 837 838 839 840 840 840 841 841 841 840 841 841 842 841 841 842 842 842 843 844 845 846 846 846 847 848 848 848 849 849 849 850 850 850 851 851 851 851 851 851 851 851 851 851 851 851 852 852 852 852 852 852 852
820 821 821 822 822 822 823 824 824 824 825 826 827 827 827 828 828 828 828 827 828 829 829 830 831 832 833 834 835 835 836 837 836 837 838 839 839 840 840 841 840 840 840 841 842 842 842 842 842 842 843 843 844 845 846 846 847 847 848 848 848 849 849 850 850 850 851 851 851 851 851 852 852 852 852 852 852 852 852 852 852 852 853 853 853
820 822 823 823 822 822 822 822 823 823 824 825 826 826 826 827 827 827 827 827 828 829 829 830 830 831 832 833 834 835 835 836 835 836 836 837 838 839 839 840 840 840 840 841 841 842 842 842 842 843 843 843 844 844 845 846 846 847 847 847 848 848 849 849 850 850 851 851 851 851 852 852 852 852 852 852 852 852 852 853 853 853 853 853 854
819 821 824 824 822 821 821 821 822 822 824 825 825 826 826 827 827 827 827 827 827 828 829 829 829 830 831 832 833 834 834 834 835 834 835 836 837 837 838 839 839 839 840 840 841 842 842 842 842 843 843 843 844 844 845 845 846 846 847 847 847 847 848 849 849 850 850 851 851 851 852 852 852 853 853 853 853 853 853 853 853 853 854 854 854
818 819 820 820 819 819 819 820 820 821 823 824 825 825 826 827 827 826 826 826 826 827 828 828 828 829 830 831 832 833 833 833 834 833 833 834 835 836 836 837 838 839 839 840 840 841 842 842 842 843 843 843 844 844 845 845 845 845 846 846 846 847 847 848 849 850 850 850 851 851 852 852 853 853 853 853 853 853 853 853 854 854 854 854 855
818 818 817 816 817 818 819 819 820 821 822 823 824 825 825 826 826 826 826 826 826 827 828 828 828 828 829 830 831 832 831 831 832 833 833 833 834 834 835 836 837 837 838 839 840 840 841 842 842 842 842 843 843 844 845 845 845 845 846 846 846 846 847 848 848 849 850 850 851 851 852 852 853 853 853 853 853 854 854 854 854 854 854 855 855
818 818 818 817 817 818 818 819 820 821 822 823 823 824 824 825 825 825 825 826 826 827 828 828 828 827 827 828 830 830 830 830 831 831 833 834 834 834 835 835 836 836 837 838 839 840 841 841 842 842 842 843 843 844 845 845 845 845 845 846 846 846 846 847 848 849 849 850 850 851 851 852 853 853 853 854 854 854 854 854 854 855 855 855 855
817 818 818 818 818 818 818 818 819 819 820 821 821 822 822 823 824 825 825 826 827 828 828 828 828 827 827 828 829 830 830 830 830 831 832 833 834 835 835 835 835 836 836 837 838 839 840 841 841 842 842 842 843 844 844 845 845 845 845 846 846 846 846 847 848 849 849 850 850 851 851 852 853 853 853 854 854 854 854 854 855 855 855 855 856
816 817 818 818 818 818 817 817 818 818 818 818 819 820 821 822 823 825 826 826 827 828 828 828 828 828 827 828 829 829 829 830 830 831 831 832 833 834 835 835 836 836 836 836 837 838 839 840 840 841 841 842 842 843 844 844 845 845 845 846 846 846 847 847 848 849 849 850 850 851 851 852 853 853 853 854 854 854 854 854 855 855 855 856 856
816 817 817 817 817 816 816 816 817 817 817 817 817 818 820 822 822 824 825 826 826 826 827 828 828 827 827 827 828 828 829 829 830 830 830 831 831 833 834 835 835 836 836 836 836 837 838 839 839 840 841 841 842 842 843 844 844 844 845 845 846 846 847 847 848 849 849 850 850 851 851 852 853 853 854 854 854 854 854 854 855 855 855 855 856
816 817 817 817 816 816 815 815 816 816 816 817 817 817 819 820 821 823 824 824 824 824 826 827 827 826 825 826 827 828 829 828 828 828 829 829 830 831 833 834 834 835 835 835 836 836 836 837 838 839 840 840 841 841 842 843 843 844 844 845 845 846 847 847 848 848 849 849 850 850 851 851 852 853 854 854 854 854 854 854 855 855 855 855 855
817 817 817 817 817 817 816 816 815 816 816 817 817 817 816 818 820 821 823 823 823 823 825 826 826 826 826 826 827 828 829 828 827 826 827 828 828 829 831 833 833 834 834 834 835 835 836 836 837 838 838 839 839 840 841 842 843 843 844 844 845 846 846 846 847 848 848 849 849 849 850 850 851 852 853 853 854 854 854 854 854 854 854 855 855
818 818 818 817 817 818 818 817 817 817 817 818 818 818 817 818 819 820 822 823 823 824 825 826 826 826 826 827 828 828 828 827 826 826 826 826 827 828 830 831 832 833 833 833 834 835 835 836 836 837 837 838 838 839 840 841 842 842 843 843 844 845 845 846 846 847 848 848 848 849 849 849 850 851 852 853 853 853 853 854 854 854 854 854 855
818 819 819 819 819 819 819 819 819 819 819 819 819 819 820 820 820 821 822 823 824 825 825 825 825 826 826 827 828 827 827 826 825 826 826 826 827 828 829 830 831 831 832 832 833 833 834 835 836 836 837 837 838 839 840 840 841 841 842 843 843 844 844 845 845 846 846 847 847 848 848 848 849 850 851 852 852 852 853 853 853 853 854 854 854
819 819 819 820 820 821 821 821 821 821 820 820 820 820 821 821 821 821 822 823 824 824 824 824 825 826 827 828 828 829 829 827 825 826 826 827 828 828 829 830 830 830 830 831 832 832 833 833 834 835 836 837 837 838 839 839 840 841 841 842 842 843 843 844 845 845 845 845 846 847 847 847 848 849 850 851 851 851 852 852 852 853 853 853 854
819 819 820 820 821 821 822 822 822 822 822 821 821 821 822 822 821 821 821 821 822 823 823 823 824 825 826 827 828 830 829 827 827 827 827 827 828 828 828 829 829 829 829 830 830 831 832 832 833 834 834 835 836 836 837 838 839 839 840 841 841 842 842 843 843 844 844 844 845 845 846 846 847 848 849 850 850 850 851 851 851 852 852 852 853
819 820 820 821 822 822 822 823 823 822 822 822 822 822 822 822 822 822 822 821 821 822 822 823 823 824 825 826 827 828 827 826 827 828 828 828 828 828 828 828 828 829 828 828 829 830 831 831 832 833 833 833 834 834 835 836 836 837 838 839 840 840 840 841 841 842 843 843 844 844 844 845 845 846 847 848 849 849 850 850 850 850 851 851 852
820 820 821 821 822 822 823 823 823 822 823 823 823 823 823 823 823 822 822 822 822 821 822 822 823 824 825 825 825 825 826 826 827 827 828 828 827 827 828 828 828 828 828 828 828 829 830 830 831 832 832 833 833 833 833 834 835 835 837 837 838 838 838 839 839 840 841 842 843 843 843 843 844 845 846 847 847 848 848 848 849 849 850 850 851
820 820 821 822 822 823 823 823 823 823 823 823 823 823 823 823 823 823 823 822 822 822 822 823 823 823 824 825 825 825 825 826 826 826 827 828 827 827 827 827 827 827 827 827 828 828 829 829 830 831 831 832 832 833 833 833 833 834 835 835 836 836 836 836 837 838 839 840 841 842 842 842 843 844 844 845 845 846 847 847 847 848 848 849 849
820 821 821 822 822 823 824 823 823 823 823 823 823 823 824 823 823 823 823 823 823 823 823 823 824 824 824 825 825 825 826 826 826 826 826 828 829 828 827 827 827 826 827 827 827 828 828 829 829 830 830 831 831 832 832 832 832 833 833 834 834 834 834 835 835 836 837 838 839 840 841 841 841 842 842 843 843 844 845 845 846 846 847 847 848
820 821 821 822 823 823 823 824 824 824 824 824 824 824 824 824 824 824 824 824 824 824 824 824 824 824 824 824 824 825 826 826 826 826 826 828 829 829 829 828 828 827 826 826 827 827 827 828 828 829 829 830 830 830 830 831 831 831 832 832 832 832 833 833 833 834 835 836 837 838 839 839 840 840 840 840 841 842 843 844 844 845 845 846 846
820 821 822 822 823 823 824 824 825 825 825 825 825 825 825 825 824 824 824 824 825 824 824 825 825 825 825 824 825 825 826 826 826 827 827 828 829 829 829 829 828 827 826 826 826 826 827 827 827 828 828 829 829 829 829 830 830 830 830 831 831 831 831 831 832 832 833 834 835 836 837 837 838 839 839 838 838 839 840 841 842 843 843 844 844
820 821 822 822 823 824 824 825 825 825 826 825 826 826 826 826 825 825 825 825 825 825 825 825 826 826 825 826 826 826 826 827 827 827 827 828 829 829 829 828 828 827 826 826 826 826 826 826 826 827 827 828 828 828 828 828 828 829 829 829 830 830 830 830 830 831 831 832 833 834 835 835 835 836 837 837 837 837 838 839 840 840 841 841 842
819 820 821 822 823 824 824 825 826 826 826 826 827 827 826 826 826 826 826 826 826 826 826 827 826 826 827 827 827 827 827 827 828 828 828 828 828 829 829 828 828 827 826 826 826 825 826 826 826 828 828 828 827 827 827 827 827 827 828 829 829 829 829 829 829 830 831 831 832 832 833 833 833 833 834 835 835 835 836 836 837 837 838 839 840
818 820 821 822 823 824 824 825 826 826 827 827 827 827 827 827 827 827 827 827 827 827 827 827 827 828 828 828 828 828 828 828 828 828 828 829 829 829 829 828 828 827 826 827 826 826 826 826 827 829 829 828 827 826 826 826 827 827 828 828 829 829 829 829 829 829 830 830 830 831 831 831 831 831 832 832 833 833 833 834 835 835 835 836 837
817 819 820 822 823 824 825 825 826 827 827 828 828 828 828 828 828 828 828 828 828 828 828 828 828 828 828 828 829 829 829 829 829 829 829 829 829 829 829 828 828 827 827 827 827 827 828 827 827 828 828 828 827 826 825 826 827 828 828 828 828 828 828 828 828 828 829 829 829 829 829 829 829 829 830 830 831 831 831 831 832 833 833 834 834
816 818 819 821 822 824 825 826 826 827 828 828 829 829 829 829 829 829 829 829 829 829 829 829 829 829 829 829 829 829 829 829 829 829 829 829 829 829 829 829 829 830 829 829 828 828 828 828 827 827 827 827 827 826 826 826 827 828 828 828 828 828 828 827 827 827 827 827 827 827 827 827 827 828 828 828 828 828 828 829 829 830 831 831 832
815 817 818 820 821 823 824 825 826 827 828 829 829 830 830 830 830 830 830 830 830 830 830 830 830 830 830 830 830 830 830 830 829 829 829 830 830 830 830 829 830 830 831 831 830 829 829 828 828 828 828 828 827 827 827 827 827 828 828 828 827 827 826 826 825 825 825 826 826 826 826 826 826 826 826 826 826 826 826 826 827 827 828 828 829
815 816 818 819 821 822 823 825 826 827 828 829 829 830 830 831 831 831 831 831 831 831 831 831 830 830 830 830 830 830 830 830 830 830 830 830 830 830 830 830 830 830 831 832 831 829 828 828 828 828 828 827 827 826 826 827 827 827 826 826 825 825 824 824 824 824 824 824 824 824 824 824 824 824 823 823 823 824 824 824 824 825 825 826 826
815 816 817 818 820 822 823 824 826 827 828 829 830 830 831 831 831 831 831 832 832 832 832 832 831 831 831 831 831 831 831 831 830 831 831 831 831 831 831 831 831 831 830 831 831 830 829 828 828 827 827 826 826 825 825 826 826 825 825 824 824 824 823 823 822 822 822 822 822 822 822 822 822 821 821 821 821 821 821 821 822 822 822 823 823
814 815 817 818 819 821 822 824 825 826 827 828 829 830 831 832 832 832 832 832 832 832 832 832 832 832 832 832 832 832 832 832 831 832 832 831 831 831 831 831 831 831 831 831 831 830 829 829 828 827 826 825 825 824 824 824 824 824 823 823 822 822 821 821 821 821 820 820 820 820 820 819 819 819 819 818 818 818 819 819 819 820 820 820 821
813 814 816 817 818 820 822 824 825 826 827 828 829 830 831 832 832 832 832 832 832 832 832 833 833 833 833 833 833 832 832 832 832 832 832 832 832 831 831 831 831 831 831 831 831 830 829 829 829 828 828 827 825 825 824 823 823 823 822 822 821 820 820 819 819 819 819 818 818 818 818 817 817 817 816 816 816 816 816 817 817 817 818 818 818
812 813 814 815 817 820 821 824 825 826 827 828 829 830 831 832 832 832 832 832 833 833 833 833 833 833 833 833 833 833 833 832 832 832 832 832 832 832 831 831 831 831 831 831 831 830 829 828 828 828 827 827 826 826 825 824 823 822 822 821 821 820 819 818 818 817 817 817 816 816 816 815 815 814 814 813 813 813 814 814 815 815 815 815 816
812 813 813 814 816 818 820 823 825 826 826 827 828 829 830 831 831 831 831 832 832 832 832 832 832 833 833 833 833 833 833 833 833 833 832 832 832 832 831 831 831 831 831 831 831 830 829 828 827 827 827 827 826 825 825 824 823 822 821 820 820 819 818 817 816 816 815 815 815 814 814 813 813 812 812 811 811 811 811 812 812 812 813 813 813
811 812 812 813 814 816 817 819 821 823 824 825 827 829 829 829 829 829 830 830 831 831 831 831 832 832 833 833 833 833 833 833 833 833 833 833 833 832 832 832 831 831 831 831 830 830 829 828 827 827 827 826 825 824 824 823 822 821 820 819 818 817 817 816 815 814 814 813 813 812 812 811 811 810 810 809 809 809 809 809 810 810 810 810 811
809 810 810 811 812 813 814 815 817 820 822 823 825 827 828 828 827 827 827 828 829 830 830 831 831 831 832 832 833 833 833 833 833 833 833 833 833 833 833 832 832 831 831 831 830 830 829 828 827 826 826 825 824 823 823 822 820 819 819 818 817 816 815 814 814 813 812 812 811 811 810 809 809 808 808 807 807 807 807 807 807 807 807 807 807
808 809 809 810 811 811 812 814 816 818 819 821 822 822 823 823 824 824 824 825 826 827 829 829 830 830 830 831 832 832 833 833 833 833 833 833 833 833 833 832 832 832 831 831 830 830 829 828 827 826 825 825 823 822 822 821 820 818 816 815 815 814 813 812 812 811 811 810 809 809 808 808 807 807 806 805 805 805 805 804 804 804 804 805 805
806 806 807 808 809 810 811 812 814 816 817 818 819 819 819 819 820 822 822 823 823 824 825 826 828 828 829 830 831 831 832 833 833 833 833 833 833 833 833 833 832 832 831 831 830 830 829 828 827 826 825 824 823 822 821 821 819 817 816 814 812 812 812 811 810 809 809 808 807 807 806 806 805 805 804 803 803 803 802 802 802 802 802 801 801
804 805 806 807 807 808 809 810 811 813 814 814 815 817 817 817 817 818 820 820 819 820 821 823 825 826 827 828 829 830 831 832 832 832 832 832 832 832 832 832 832 831 831 830 830 829 829 828 827 825 824 823 822 821 820 819 818 817 816 815 813 811 810 809 808 808 807 806 805 804 804 804 803 802 802 801 801 800 800 799 799 799 798 798 798
803 803 804 805 806 806 807 808 809 810 811 811 812 813 815 815 816 817 817 817 817 818 819 820 822 823 825 826 827 829 830 830 831 831 831 832 832 832 832 831 831 831 830 830 829 829 828 827 826 825 824 822 821 820 820 819 819 817 816 815 813 810 809 807 807 807 806 803 802 801 802 802 801 800 800 799 799 799 798 797 797 796 795 795 795
801 802 802 803 804 804 805 806 807 807 808 808 809 811 812 813 814 814 815 816 817 817 817 818 819 820 822 823 825 827 828 829 830 830 830 831 831 831 831 831 830 830 829 829 828 828 827 826 825 825 823 822 821 821 820 819 818 817 815 814 812 810 809 806 805 806 805 803 800 799 799 800 799 798 798 797 797 797 796 795 795 794 793 793 792
800 800 801 802 802 803 803 804 805 805 806 806 807 808 810 811 811 812 813 814 815 815 815 815 816 818 819 820 821 824 826 827 828 829 829 830 830 829 830 829 829 829 828 828 827 827 827 826 825 824 823 822 820 820 819 818 817 816 815 813 812 810 809 808 805 804 804 804 802 798 796 797 798 796 794 795 795 795 795 794 793 791 790 790 789
799 799 800 800 801 801 802 802 803 804 804 804 805 807 808 808 809 809 810 811 812 814 814 814 815 816 817 818 819 821 823 825 826 827 828 828 828 828 828 828 828 828 828 827 827 826 826 825 824 823 822 821 820 819 819 817 816 815 814 813 812 810 809 808 806 803 802 803 802 798 794 794 796 794 791 791 792 792 792 792 791 790 788 787 786
799 799 800 800 800 800 800 801 801 802 803 803 804 805 806 806 807 807 807 808 809 811 812 813 813 814 815 817 818 819 821 823 824 825 826 826 827 827 827 826 826 826 826 826 826 825 825 824 823 822 821 820 819 818 818 817 815 814 812 811 810 809 808 806 804 802 801 802 802 798 792 791 794 792 789 789 789 788 789 788 788 788 786 784 782
798 798 799 799 799 800 799 799 799 800 801 802 803 803 803 804 805 805 806 807 807 808 809 810 812 813 815 816 817 818 820 822 823 824 824 825 825 825 825 825 825 825 825 825 825 824 823 823 821 820 820 819 818 816 816 816 814 813 811 809 808 807 806 804 802 801 800 800 801 797 790 789 792 790 786 786 786 785 785 785 784 784 783 781 780
798 798 798 798 798 798 799 799 799 799 799 800 801 801 802 802 803 804 805 806 806 807 809 810 811 813 814 815 816 818 820 821 822 822 823 823 823 823 823 823 823 823 823 823 823 822 822 821 820 819 818 817 816 815 814 814 812 811 810 808 807 805 803 801 799 799 799 799 800 797 789 787 790 787 782 783 784 782 782 782 781 781 779 778 776
798 798 798 797 797 797 797 798 798 798 798 798 798 799 800 801 802 803 804 805 806 807 808 810 811 812 813 814 816 817 819 820 821 821 822 822 822 822 821 821 821 821 820 821 821 820 820 819 818 817 816 815 814 813 812 811 810 809 807 805 805 803 801 798 796 796 796 796 797 797 790 785 788 786 780 781 781 779 779 779 778 778 777 775 773
798 798 798 797 796 796 796 797 796 796 796 796 797 798 798 799 801 802 803 804 805 806 807 809 810 811 813 814 815 816 817 818 819 819 819 820 820 820 819 819 818 818 818 818 818 818 818 817 816 815 814 813 812 811 810 809 808 807 805 802 802 802 800 797 795 794 794 793 794 795 790 785 786 785 780 779 779 777 776 776 776 775 774 771 769
797 797 797 796 796 796 796 796 795 795 795 795 795 796 797 798 800 801 802 803 804 806 807 809 810 810 812 813 813 814 815 816 817 817 817 817 818 817 817 816 816 816 816 816 815 815 815 814 813 813 811 810 809 808 807 806 805 805 803 800 800 800 798 796 794 792 791 791 792 793 789 784 784 783 780 777 776 775 775 774 773 772 771 769 767
796 796 795 795 795 795 795 795 795 795 795 795 795 796 796 797 799 800 801 803 804 805 807 808 809 809 810 812 812 812 812 814 815 815 815 815 815 815 815 815 814 814 814 813 813 812 811 810 809 809 808 807 806 804 803 802 801 801 800 798 798 798 795 794 793 792 789 788 789 791 787 783 783 782 780 777 774 772 773 773 772 771 770 768 766